Weather History for KENW - October, 2012

Change the Weather History Date:

Tuesday, October 9, 2012

  Actual Average Record
Temperature  
Mean Temperature 52 °F -  
Max Temperature 66 °F 59 °F 85 °F (1949)
Min Temperature 41 °F 43 °F 27 °F (2000)
Degree Days  
Heating Degree Days 12    
Growing Degree Days 2 (Base 50)    
Moisture  
Dew Point 36 °F    
Average Humidity 60    
Maximum Humidity 89    
Minimum Humidity 34    
Precipitation  
Precipitation 0.29 in - - ()
Sea Level Pressure  
Sea Level Pressure 29.87 in    
Wind  
Wind Speed 14 mph (WSW)    
Max Wind Speed 24 mph    
Max Gust Speed 33 mph    
Visibility 9 miles    
Events Rain    
Averages and records for this station are not official NWS values.
T = Trace of Precipitation, MM = Missing Value Source: NWS Daily Summary

Daily Weather History Graph

Daily Weather History Graph

Search for Another Location

Airport or City:

Trip Planner

Search our weather history database for the weather conditions in past years. The results will help you decide how hot, cold, wet, or windy it might be!

Date:

Astronomy

Oct. 09, 2012 Rise Set
Actual Time 6:58 AM CDT 6:18 PM CDT
Civil Twilight 6:30 AM CDT 6:46 PM CDT
Nautical Twilight 5:57 AM CDT 7:19 PM CDT
Astronomical Twilight 5:24 AM CDT 7:52 PM CDT
Moon 12:27 AM CDT (10/9) 2:52 PM CDT (10/9)
Length of Visible Light 12h 16m
Length of Day
11h 20m
Last Quarter, 36% of the Moon is Illuminated
Oct 9
Last Quarter
Oct 15
New
Oct 21
First Quarter
Oct 29
Full
Nov 6
Last Quarter

Hourly Weather History & Observations

Time (CDT) Temp. Windchill Dew Point Humidity Pressure Visibility Wind Dir Wind Speed Gust Speed Precip Events Conditions
12:53 AM 52.0 °F - 30.9 °F 45% 29.95 in 10.0 mi SSW 12.7 mph 19.6 mph N/A   Partly Cloudy
1:53 AM 52.0 °F - 30.9 °F 45% 29.95 in 10.0 mi SSW 16.1 mph 21.9 mph N/A   Overcast
3:53 AM 51.1 °F - 32.0 °F 48% 29.92 in 10.0 mi SSW 16.1 mph 19.6 mph N/A   Overcast
4:53 AM 50.0 °F - 32.0 °F 50% 29.91 in 10.0 mi SSW 12.7 mph 21.9 mph N/A   Clear
5:53 AM 50.0 °F - 33.1 °F 52% 29.91 in 10.0 mi SSW 12.7 mph 24.2 mph N/A   Clear
6:53 AM 50.0 °F - 33.1 °F 52% 29.90 in 10.0 mi SSW 17.3 mph 24.2 mph N/A   Clear
7:53 AM 50.0 °F - 34.0 °F 54% 29.90 in 10.0 mi SSW 17.3 mph 24.2 mph N/A   Partly Cloudy
8:53 AM 50.0 °F - 35.1 °F 57% 29.89 in 10.0 mi SSW 17.3 mph 24.2 mph N/A   Clear
9:53 AM 53.1 °F - 36.0 °F 52% 29.88 in 10.0 mi SW 12.7 mph 20.7 mph N/A   Clear
10:53 AM 57.0 °F - 37.0 °F 47% 29.86 in 10.0 mi SW 18.4 mph 25.3 mph N/A   Clear
11:53 AM 59.0 °F - 37.9 °F 46% 29.85 in 10.0 mi SSW 13.8 mph 21.9 mph N/A   Clear
12:53 PM 61.0 °F - 37.9 °F 42% 29.82 in 10.0 mi SW 15.0 mph 25.3 mph N/A   Clear
1:53 PM 64.0 °F - 37.0 °F 37% 29.79 in 10.0 mi WSW 19.6 mph 31.1 mph N/A   Clear
2:53 PM 64.9 °F - 36.0 °F 34% 29.77 in 10.0 mi SW 24.2 mph 33.4 mph N/A   Clear
3:53 PM 64.0 °F - 36.0 °F 35% 29.77 in 10.0 mi WSW 17.3 mph 23.0 mph N/A   Clear
4:53 PM 64.0 °F - 37.9 °F 38% 29.78 in 10.0 mi WSW 12.7 mph 25.3 mph N/A   Mostly Cloudy
5:53 PM 61.0 °F - 37.9 °F 42% 29.79 in 10.0 mi West 11.5 mph 21.9 mph N/A   Mostly Cloudy
6:43 PM 53.6 °F - 39.2 °F 58% 29.82 in 10.0 mi NW 16.1 mph 25.3 mph N/A   Overcast
6:53 PM 53.1 °F - 41.0 °F 64% 29.83 in 10.0 mi NW 17.3 mph 24.2 mph 0.00 in Rain Light Rain
7:24 PM 50.0 °F - 39.2 °F 66% 29.85 in 10.0 mi WNW 19.6 mph 28.8 mph 0.00 in   Overcast
7:53 PM 48.0 °F - 39.9 °F 74% 29.86 in 10.0 mi WNW 13.8 mph 21.9 mph 0.00 in Rain Light Rain
8:43 PM 42.8 °F 35.4 °F 39.2 °F 87% 29.88 in 3.0 mi WNW 15.0 mph 19.6 mph 0.07 in Rain Rain
8:53 PM 43.0 °F 35.4 °F 37.0 °F 80% 29.89 in 4.0 mi WNW 16.1 mph 25.3 mph 0.10 in Rain Rain
9:27 PM 41.0 °F 36.4 °F 37.4 °F 87% 29.89 in 1.8 mi West 6.9 mph - 0.14 in Rain Heavy Rain
9:34 PM 41.0 °F 35.8 °F 37.4 °F 87% 29.88 in 2.0 mi West 8.1 mph - 0.17 in Rain Rain
9:43 PM 41.0 °F 36.4 °F 37.4 °F 87% 29.88 in 5.0 mi West 6.9 mph - 0.18 in Rain Light Rain
9:53 PM 41.0 °F 36.4 °F 37.9 °F 89% 29.89 in 9.0 mi WSW 6.9 mph - 0.19 in Rain Light Rain
10:53 PM 42.1 °F 36.6 °F 39.0 °F 89% 29.89 in 10.0 mi WSW 9.2 mph - 0.00 in   Overcast
11:53 PM 42.1 °F 36.6 °F 39.0 °F 89% 29.89 in 10.0 mi WSW 9.2 mph - N/A   Partly Cloudy